Other Public Products
Issued by NWS Grand Forks, ND

Home | Current Version | Previous Version | Text Only | Print | Product List | Glossary On
Versions: 1 2 3 4 5 6 7 8 9 10 11 12 13 14 15 16 17 18 19 20 21 22 23 24 25 26 27 28 29 30 31 32 33 34 35 36 37 38 39 40 41 42 43 44 45 46 47 48 49 50
000
FPUS83 KFGF 051231
OPUFGF
PRAIRIE TO PINES WEATHER ROUNDUP
NATIONAL WEATHER SERVICE EASTERN NORTH DAKOTA/GRAND FORKS ND
700 AM CDT TUE MAY 05 2015

 **SATELLITE DATA USED TO AUGMENT SKY COVER AT AUTOMATED STATIONS**
 *****  WEATHER ACROSS EASTERN NORTH DAKOTA  *****

CITY           SKY/WX    TMP DP  RH WIND       PRES   REMARKS
GRAND FORKS    PTCLDY    40  29  64 S6        30.17R
6HR MIN TEMP:  36; 6HR MAX TEMP:  48;

GRAND FORKS AF FAIR      38  26  61 S8        30.16R
GRAND CITY NWS   N/A     43 N/A N/A S3          N/A
BUXTON           N/A     43  30  60 CALM        N/A
DEVILS LAKE    CLOUDY    54  32  43 S13       30.13R
6HR MIN TEMP:  46; 6HR MAX TEMP:  54;

FARGO          CLEAR     48  31  51 SE8       30.18R
6HR MIN TEMP:  46; 6HR MAX TEMP:  51;

WAHPETON ARPT  SUNNY     46  30  53 E5        30.19S
$$

 *****  WEATHER ACROSS CENTRAL AND WESTERN NORTH DAKOTA  *****

CITY           SKY/WX    TMP DP  RH WIND       PRES   REMARKS
JAMESTOWN      PTCLDY    48  29  47 S8        30.14S
6HR MIN TEMP:  43; 6HR MAX TEMP:  50;

BISMARCK       CLOUDY    51  30  44 SE12      30.06F
6HR MIN TEMP:  50; 6HR MAX TEMP:  53;

MINOT          MOCLDY    53  29  39 SE12      30.03S
6HR MIN TEMP:  52; 6HR MAX TEMP:  55;

MINOT AFB      PTCLDY    52  31  45 S14       30.02S
6HR MIN TEMP:  49; 6HR MAX TEMP:  55;

GARRISON         N/A     52  31  44 SE13      30.02F
6HR MIN TEMP:  50; 6HR MAX TEMP:  53;

WILLISTON      CLEAR     50  28  42 VRB3      29.95F
6HR MIN TEMP:  49; 6HR MAX TEMP:  54;

DICKINSON      CLEAR     40  29  64 SE9       29.97F
6HR MIN TEMP:  39; 6HR MAX TEMP:  48;

HETTINGER      CLEAR     44  29  55 SE9       30.01F
6HR MIN TEMP:  43; 6HR MAX TEMP:  51;

$$

 *****  OTHER OBSERVATIONS NORTHEAST NORTH DAKOTA  *****

CITY           SKY/WX    TMP DP  RH WIND       PRES   REMARKS
WALHALLA       PTSUNNY   57  27  30 S12       30.13S
LANGDON        PTSUNNY   52  28  40 S13       30.14R
CAVALIER       FAIR      45  30  57 S8        30.14S
GRAFTON        FAIR      41  30  65 S6        30.17S
CANDO          CLOUDY    54  34  47 S9        30.12S
FORT TOTTEN      N/A     50  29  45 S10       29.95S
ROLLA          NOT AVBL
RUGBY          NOT AVBL
 ***** THE ABOVE OBSERVATIONS ARE NON NWS ARE NOT QUALITY
        CONTROLLED AND MAY MIS-REPORT RAIN FOR SNOW...
$$

 *****  OTHER OBSERVATIONS SOUTHEAST NORTH DAKOTA *****

CITY           SKY/WX    TMP DP  RH WIND       PRES   REMARKS
COOPERSTOWN    NOT AVBL
VALLEY CITY    FAIR      46  32  57 S5        30.16F
OAKES            N/A     48  36  61 SE8       30.15S
GWINNER        SUNNY     48  32  53 SE5       30.18S
SHEYENNE NWR     N/A     39  28  64 E3        29.95S
BUFFALO        NOT AVBL
WYNDMERE       NOT AVBL
 ***** THE ABOVE OBSERVATIONS ARE NON NWS ARE NOT QUALITY
       CONTROLLED AND MAY MIS-REPORT RAIN FOR SNOW...
$$

  *****  WEATHER ACROSS NORTHERN MINNESOTA  *****

CITY           SKY/WX    TMP DP  RH WIND       PRES   REMARKS
FLAG ISLAND    CLEAR     48  39  71 S9        30.18R
WARROAD        CLEAR     48  32  53 S6        30.20R
ROSEAU         CLEAR     46  30  53 S7        30.19R
HALLOCK        CLEAR     45  27  49 S9        30.16S
THF RVR FALLS  CLEAR     48  27  43 SE6       30.20R
6HR MIN TEMP:  43; 6HR MAX TEMP:  52;

HALSTAD          N/A     46  28  51 SE5         N/A
FOSSTON        CLEAR     50  25  37 SE7       30.21S
BAUDETTE       CLEAR     38  31  76 SE6       30.21S
6HR MIN TEMP:  36; 6HR MAX TEMP:  42;

WASKISH        FAIR      46  34  61 CALM      30.22S
CROOKSTON      CLEAR     46  30  53 S8        30.19S
$$
  *****  WEATHER ACROSS CENTRAL AND WEST MINNESOTA  *****

CITY           SKY/WX    TMP DP  RH WIND       PRES   REMARKS
BEMIDJI        CLEAR     37  34  87 CALM      30.23R
PARK RAPIDS    CLEAR     36  31  82 CALM      30.22R
6HR MIN TEMP:  33; 6HR MAX TEMP:  45;

WADENA         CLEAR     39  28  65 CALM      30.21S
DETROIT LAKES  CLEAR     48  28  46 SE8       30.21S
MOORHEAD       CLEAR     46  28  49 SE3       30.19S
FERGUS FALLS   CLEAR     52  27  37 E5        30.20S
ELBOW LAKE     FAIR      50  29  44 E9        30.18F
6HR MIN TEMP:  49; 6HR MAX TEMP:  54;

MORRIS MN      CLEAR     50  27  40 E9        30.17S
STAPLES        CLEAR     37  34  87 CALM      30.22S
WHEATON        FAIR      43  30  61 CALM      30.20S
$$
  *****  WEATHER ELSEWHERE ACROSS MINNESOTA  *****

CITY           SKY/WX    TMP DP  RH WIND       PRES   REMARKS
DULUTH         SUNNY     45  27  49 E5        30.26R
6HR MIN TEMP:  34; 6HR MAX TEMP:  45;

INTRNTL FALLS  SUNNY     35  29  78 SE3       30.23S
6HR MIN TEMP:  28; 6HR MAX TEMP:  35;

ELY            SUNNY     36  28  75 CALM      30.27S
CLOQUET        SUNNY     39  32  75 CALM      30.26R
BRAINERD       CLEAR     36  34  92 CALM      30.23S
6HR MIN TEMP:  32; 6HR MAX TEMP:  39;

HIBBING        SUNNY     32  26  78 CALM      30.26R
6HR MIN TEMP:  25; 6HR MAX TEMP:  35;

ALEXANDRIA     CLEAR     48  27  44 E7        30.21R
6HR MIN TEMP:  46; 6HR MAX TEMP:  52;

SAINT CLOUD    CLEAR     49  25  39 E6        30.21R
6HR MIN TEMP:  47; 6HR MAX TEMP:  52;

MINNEAPOLIS    PTCLDY    53  35  50 NE8       30.19R
6HR MIN TEMP:  51; 6HR MAX TEMP:  57;

$$

  *****  WEATHER ACROSS SOUTH DAKOTA  *****

CITY           SKY/WX    TMP DP  RH WIND       PRES   REMARKS
SIOUX FALLS    CLOUDY    46  35  65 NE3       30.11S
6HR MIN TEMP:  44; 6HR MAX TEMP:  51;

BROOKINGS      PTCLDY    50  28  43 E6        30.14S
WATERTOWN      CLEAR     50  26  39 E7        30.15S
6HR MIN TEMP:  50; 6HR MAX TEMP:  56;

HURON          MOCLDY    44  33  65 E7        30.12S
6HR MIN TEMP:  42; 6HR MAX TEMP:  54;

SISSETON         N/A     38  28  67 CALM      30.17S
ABERDEEN       MOCLDY    45  33  63 CALM      30.14S
6HR MIN TEMP:  43; 6HR MAX TEMP:  52;

MITCHELL       MOCLDY    46  34  62 CALM      30.11S
PIERRE         PTCLDY    51  37  58 E10       30.06S
6HR MIN TEMP:  49; 6HR MAX TEMP:  55;

MOBRIDGE       PTCLDY    54  34  46 SE13      30.05S
RAPID CITY     CLEAR     38  34  85 SE8       30.00F
6HR MIN TEMP:  38; 6HR MAX TEMP:  48;

$$

  *****  SOME WEATHER IN NEARBY STATES *****

CITY           SKY/WX    TMP DP  RH WIND       PRES   REMARKS
GLASGOW MT     CLEAR     44  34  67 E15       29.82S
6HR MIN TEMP:  44; 6HR MAX TEMP:  53;

GREAT FALLS MT PTCLDY    44  33  65 S12       29.76R
6HR MIN TEMP:  41; 6HR MAX TEMP:  56;

CHEYENNE WY    FOG       43  42  97 S9        30.00F VSB 1/4
6HR MIN TEMP:  43; 6HR MAX TEMP:  44;

SCOTTSBLUFF NE CLOUDY    48  45  89 SE10      30.01F FOG
6HR MIN TEMP:  47; 6HR MAX TEMP:  49;

OMAHA NE       CLOUDY    61  58  90 SE6       30.07S FOG
6HR MIN TEMP:  57; 6HR MAX TEMP:  61;

DES MOINES IA  FOG       62  61  96 S8        30.10R VSB 1
6HR MIN TEMP:  62; 6HR MAX TEMP:  64; 6HR PCP:  0.03;

DAVENPORT IA   CLOUDY    57  55  93 E10       30.14R FOG
6HR MIN TEMP:  57; 6HR MAX TEMP:  63; 6HR PCP:  0.62;

CHICAGO IL     LGT RAIN  50  49  96 E13       30.17F
6HR MIN TEMP:  49; 6HR MAX TEMP:  56; 6HR PCP:  0.93;

EAU CLAIRE WI  PTSUNNY   49  38  65 NE7       30.23R
6HR MIN TEMP:  46; 6HR MAX TEMP:  49;

LA CROSSE WI   CLOUDY    57  41  55 SE3       30.21R
6HR MIN TEMP:  53; 6HR MAX TEMP:  59;

$$

  *****  SOME NATIONAL WEATHER *****

CITY           SKY/WX    TMP DP  RH WIND       PRES   REMARKS


USA.gov is the U.S. government's official web portal to all federal, state and local government web resources and services.